Precipitable_Water
0.19 0.19 0.19 0.19 0.21 0.21 0.22 0.22 0.21 0.19 0.19 0.19 0.19 0.18 0.21 0.23 0.24 0.23 0.23 0.20 0.19 0.20 0.24 0.28 0.29 0.31 0.35 0.36 0.37 0.36 0.35 0.34 0.29 0.30 0.31 0.30 0.29 0.28 0.31 0.35 0.37 0.39 0.39
0.18 0.19 0.19 0.21 0.20 0.20 0.20 0.19 0.18 0.17 0.18 0.18 0.18 0.19 0.19 0.20 0.22 0.21 0.18 0.20 0.19 0.19 0.24 0.29 0.30 0.31 0.31 0.34 0.34 0.33 0.34 0.34 0.32 0.28 0.31 0.30 0.29 0.30 0.31 0.33 0.35 0.40 0.39
0.18 0.19 0.19 0.18 0.18 0.18 0.17 0.15 0.16 0.16 0.16 0.16 0.16 0.17 0.15 0.18 0.20 0.19 0.19 0.18 0.17 0.19 0.26 0.30 0.31 0.33 0.31 0.32 0.33 0.32 0.33 0.34 0.33 0.31 0.29 0.32 0.31 0.32 0.31 0.32 0.34 0.39 0.39
0.18 0.19 0.17 0.17 0.18 0.17 0.15 0.14 0.14 0.14 0.13 0.13 0.15 0.16 0.15 0.17 0.20 0.19 0.19 0.18 0.18 0.21 0.30 0.32 0.33 0.33 0.32 0.33 0.31 0.29 0.30 0.31 0.32 0.31 0.31 0.30 0.31 0.32 0.31 0.29 0.30 0.36 0.36
0.18 0.17 0.17 0.18 0.17 0.14 0.13 0.12 0.12 0.12 0.12 0.13 0.14 0.15 0.14 0.15 0.18 0.20 0.19 0.18 0.19 0.24 0.31 0.31 0.32 0.32 0.33 0.30 0.30 0.29 0.29 0.28 0.28 0.28 0.28 0.29 0.29 0.29 0.28 0.29 0.29 0.32 0.36
0.17 0.16 0.17 0.17 0.15 0.13 0.11 0.11 0.11 0.12 0.12 0.13 0.14 0.14 0.14 0.14 0.18 0.20 0.19 0.18 0.19 0.28 0.29 0.30 0.29 0.30 0.30 0.31 0.30 0.31 0.31 0.28 0.26 0.26 0.27 0.26 0.27 0.29 0.32 0.29 0.29 0.28 0.27
0.16 0.16 0.16 0.14 0.13 0.10 0.10 0.11 0.12 0.12 0.13 0.13 0.14 0.14 0.13 0.14 0.18 0.19 0.19 0.19 0.21 0.29 0.29 0.29 0.28 0.28 0.29 0.29 0.30 0.28 0.30 0.29 0.30 0.28 0.26 0.28 0.28 0.29 0.30 0.30 0.30 0.29 0.28
0.16 0.16 0.14 0.14 0.10 0.10 0.11 0.12 0.13 0.13 0.13 0.14 0.14 0.14 0.14 0.15 0.18 0.19 0.19 0.19 0.23 0.29 0.29 0.28 0.27 0.28 0.28 0.29 0.28 0.28 0.28 0.29 0.29 0.29 0.29 0.29 0.30 0.31 0.30 0.31 0.32 0.33 0.35
0.16 0.14 0.14 0.13 0.11 0.11 0.12 0.14 0.14 0.14 0.14 0.15 0.16 0.15 0.15 0.16 0.18 0.19 0.19 0.18 0.24 0.28 0.30 0.27 0.27 0.28 0.29 0.29 0.28 0.27 0.27 0.28 0.32 0.32 0.32 0.31 0.31 0.31 0.29 0.29 0.28 0.29 0.28
0.15 0.14 0.13 0.11 0.13 0.15 0.16 0.15 0.16 0.15 0.15 0.15 0.16 0.16 0.17 0.16 0.18 0.19 0.19 0.18 0.23 0.28 0.28 0.27 0.27 0.28 0.28 0.29 0.27 0.27 0.26 0.28 0.29 0.30 0.31 0.33 0.34 0.32 0.31 0.30 0.29 0.28 0.30
0.16 0.16 0.15 0.17 0.17 0.18 0.17 0.16 0.16 0.16 0.15 0.14 0.15 0.16 0.17 0.18 0.18 0.19 0.19 0.17 0.23 0.29 0.27 0.25 0.27 0.28 0.28 0.28 0.28 0.28 0.28 0.31 0.31 0.30 0.31 0.31 0.33 0.33 0.32 0.31 0.32 0.32 0.30
0.16 0.16 0.17 0.18 0.18 0.18 0.17 0.16 0.15 0.15 0.14 0.14 0.14 0.15 0.17 0.20 0.19 0.19 0.18 0.16 0.23 0.29 0.29 0.27 0.27 0.28 0.27 0.27 0.28 0.29 0.29 0.30 0.31 0.31 0.30 0.29 0.30 0.31 0.32 0.32 0.34 0.37 0.37
0.17 0.17 0.17 0.17 0.18 0.17 0.15 0.14 0.13 0.13 0.13 0.13 0.14 0.14 0.16 0.19 0.19 0.20 0.17 0.15 0.19 0.31 0.30 0.28 0.27 0.27 0.27 0.27 0.27 0.28 0.29 0.29 0.29 0.29 0.29 0.29 0.29 0.32 0.33 0.32 0.34 0.37 0.36
0.16 0.16 0.16 0.15 0.15 0.14 0.14 0.14 0.13 0.12 0.12 0.12 0.13 0.14 0.16 0.17 0.19 0.20 0.18 0.15 0.15 0.30 0.31 0.28 0.26 0.26 0.26 0.26 0.27 0.28 0.28 0.29 0.29 0.29 0.30 0.33 0.34 0.34 0.32 0.33 0.32 0.33 0.32
0.14 0.15 0.15 0.14 0.14 0.13 0.12 0.13 0.13 0.14 0.13 0.12 0.14 0.14 0.16 0.15 0.18 0.19 0.18 0.15 0.14 0.24 0.30 0.28 0.25 0.25 0.24 0.25 0.25 0.26 0.27 0.28 0.29 0.30 0.31 0.32 0.33 0.32 0.31 0.34 0.32 0.32 0.28
0.13 0.13 0.13 0.12 0.12 0.12 0.11 0.11 0.13 0.13 0.13 0.14 0.14 0.14 0.16 0.17 0.18 0.18 0.18 0.16 0.14 0.17 0.27 0.27 0.24 0.24 0.24 0.23 0.24 0.24 0.26 0.27 0.28 0.30 0.31 0.32 0.31 0.30 0.29 0.32 0.32 0.29 0.26
0.12 0.11 0.11 0.11 0.11 0.11 0.10 0.10 0.09 0.11 0.13 0.13 0.13 0.14 0.15 0.16 0.16 0.17 0.18 0.17 0.14 0.13 0.20 0.26 0.24 0.24 0.24 0.24 0.24 0.24 0.24 0.26 0.29 0.30 0.31 0.31 0.30 0.29 0.29 0.29 0.29 0.27 0.26
0.14 0.13 0.12 0.12 0.11 0.11 0.11 0.11 0.11 0.10 0.10 0.10 0.13 0.13 0.14 0.15 0.15 0.16 0.17 0.17 0.13 0.12 0.14 0.20 0.25 0.24 0.24 0.24 0.24 0.25 0.25 0.26 0.27 0.28 0.30 0.32 0.31 0.28 0.27 0.27 0.27 0.25 0.25
0.14 0.13 0.13 0.12 0.12 0.11 0.11 0.11 0.11 0.10 0.10 0.11 0.11 0.11 0.13 0.13 0.14 0.14 0.15 0.16 0.15 0.13 0.12 0.15 0.21 0.26 0.25 0.25 0.26 0.26 0.26 0.26 0.27 0.27 0.28 0.29 0.30 0.28 0.26 0.26 0.25 0.25 0.25
0.13 0.13 0.12 0.11 0.11 0.10 0.10 0.10 0.10 0.10 0.11 0.11 0.11 0.12 0.12 0.12 0.12 0.12 0.14 0.15 0.15 0.15 0.13 0.12 0.15 0.21 0.27 0.27 0.27 0.27 0.27 0.27 0.28 0.28 0.28 0.28 0.30 0.30 0.28 0.28 0.27 0.26 0.27
0.12 0.13 0.12 0.11 0.11 0.11 0.11 0.10 0.10 0.11 0.11 0.11 0.12 0.12 0.13 0.12 0.12 0.13 0.13 0.14 0.15 0.15 0.15 0.13 0.12 0.15 0.21 0.28 0.29 0.27 0.27 0.27 0.28 0.29 0.29 0.31 0.32 0.31 0.32 0.30 0.29 0.30 0.30
0.16 0.14 0.12 0.12 0.13 0.12 0.11 0.12 0.11 0.11 0.11 0.11 0.11 0.12 0.12 0.12 0.12 0.12 0.13 0.14 0.14 0.15 0.16 0.15 0.13 0.13 0.15 0.19 0.28 0.29 0.28 0.27 0.28 0.29 0.29 0.30 0.31 0.32 0.33 0.33 0.31 0.30 0.30
0.16 0.15 0.14 0.14 0.14 0.13 0.13 0.12 0.12 0.12 0.12 0.12 0.12 0.11 0.11 0.12 0.12 0.12 0.12 0.14 0.15 0.14 0.14 0.15 0.14 0.13 0.13 0.15 0.20 0.29 0.30 0.30 0.29 0.30 0.29 0.30 0.31 0.30 0.30 0.30 0.31 0.31 0.29
0.17 0.16 0.15 0.13 0.13 0.13 0.13 0.12 0.12 0.13 0.12 0.12 0.12 0.11 0.11 0.11 0.12 0.12 0.12 0.13 0.14 0.14 0.14 0.13 0.14 0.14 0.13 0.13 0.15 0.18 0.28 0.35 0.33 0.32 0.31 0.30 0.30 0.31 0.31 0.30 0.30 0.30 0.30
0.18 0.17 0.16 0.16 0.15 0.14 0.14 0.13 0.13 0.13 0.13 0.12 0.12 0.11 0.11 0.11 0.11 0.11 0.12 0.12 0.13 0.13 0.13 0.13 0.12 0.14 0.14 0.13 0.13 0.14 0.16 0.24 0.37 0.38 0.35 0.33 0.32 0.31 0.32 0.32 0.32 0.31 0.32
0.19 0.19 0.18 0.18 0.17 0.17 0.15 0.13 0.13 0.13 0.13 0.13 0.13 0.12 0.11 0.11 0.11 0.11 0.11 0.12 0.11 0.12 0.12 0.12 0.12 0.12 0.13 0.14 0.14 0.14 0.14 0.15 0.20 0.34 0.38 0.35 0.32 0.32 0.32 0.32 0.32 0.31 0.31
Wind_Speed
26 28 28 27 26 27 27 28 28 29 31 33 33 35 36 36 35 36 38 38 38 36 34 31 30 29 27 25 25 25 25 24 23 22 21 20 19 19 19 18 21 26 30
26 27 27 27 27 27 27 27 29 30 32 33 34 36 37 37 38 39 40 40 40 38 36 33 32 31 28 25 24 25 25 25 24 23 22 20 19 19 19 18 19 25 27
26 26 27 27 28 28 28 28 29 31 32 34 35 36 38 38 39 41 42 43 42 39 38 36 33 30 28 25 23 21 24 24 24 23 22 21 20 18 18 18 19 24 26
25 25 26 27 27 28 29 30 31 32 33 34 36 37 39 39 41 44 45 45 43 41 39 35 32 30 28 24 21 20 20 19 21 21 22 22 20 19 18 17 19 21 25
25 25 26 26 27 28 30 31 32 34 35 36 37 38 40 41 43 47 48 47 45 42 39 36 32 29 26 25 22 20 18 19 20 21 22 21 20 17 17 17 19 20 23
25 25 25 26 27 29 30 32 33 35 36 38 39 40 42 42 46 49 50 47 46 43 41 37 33 30 27 24 22 18 16 18 21 21 21 22 21 18 16 16 18 20 20
25 25 25 26 28 29 31 32 34 36 38 39 41 42 44 45 48 51 52 48 46 44 41 37 34 31 27 23 19 16 15 16 17 20 21 20 21 19 16 16 18 20 21
25 25 25 26 28 30 31 33 35 37 39 41 42 44 45 46 49 53 54 50 46 44 41 38 34 33 27 23 20 15 11 7 9 15 19 21 20 19 18 17 17 19 20
24 25 26 27 28 30 32 34 36 38 39 41 43 44 46 48 51 54 55 52 48 45 41 39 35 33 28 24 19 17 9 3 2 9 14 19 20 20 19 19 20 19 18
24 25 26 27 29 31 32 34 35 37 40 41 42 44 46 49 52 55 56 55 50 47 42 39 36 33 28 24 20 17 12 6 3 6 9 12 16 18 20 21 22 20 18
23 24 26 27 29 31 33 34 36 37 39 41 43 44 46 49 52 55 57 56 52 47 43 40 36 33 28 25 21 17 13 8 4 5 6 9 13 16 20 22 23 20 19
23 25 26 27 29 31 32 34 36 37 39 41 43 45 47 49 52 55 57 57 56 47 42 41 37 33 29 26 22 19 14 11 8 5 6 9 12 15 19 22 22 20 20
22 25 27 28 29 31 33 34 36 38 39 41 43 45 47 49 51 54 56 58 57 49 42 41 37 34 31 27 24 20 16 12 10 8 6 9 12 15 19 22 23 21 19
22 24 26 28 30 31 32 34 36 38 39 41 43 45 47 49 51 53 55 56 57 51 44 41 38 34 32 29 25 22 17 13 12 10 8 10 14 17 20 24 24 21 19
22 24 26 28 30 32 33 34 36 38 39 40 43 44 46 48 51 52 54 55 56 53 46 41 39 36 34 32 28 24 19 15 13 12 11 11 14 18 22 24 22 20 18
21 23 25 27 30 31 33 34 35 37 38 40 42 43 44 45 48 51 52 53 55 55 47 45 41 38 36 34 31 27 23 18 14 13 13 15 16 20 23 23 21 19 17
21 23 25 27 29 31 32 33 34 36 37 39 41 42 44 45 47 49 51 52 53 55 52 48 44 39 37 35 33 31 27 23 19 16 16 17 19 20 21 20 19 17 16
20 23 25 26 28 30 32 33 34 35 36 38 39 41 43 44 46 48 49 49 52 55 54 49 46 41 37 35 34 33 30 28 24 21 19 17 18 18 17 17 16 16 15
20 22 24 26 28 29 32 33 34 35 36 36 38 39 42 43 44 46 47 49 50 52 54 51 47 43 38 35 33 32 30 29 26 23 20 18 16 15 15 14 14 14 14
19 21 23 25 27 29 31 32 34 34 36 36 37 39 41 41 43 45 46 47 48 50 51 51 49 44 40 36 32 31 29 27 25 22 20 17 14 12 12 11 11 12 12
18 21 22 24 26 28 30 32 33 34 35 35 36 38 40 41 41 43 44 45 46 48 49 49 49 46 41 37 34 30 28 26 23 21 18 16 13 11 9 8 8 9 10
18 20 21 23 25 27 28 30 32 33 34 34 35 36 38 39 40 40 42 43 44 45 46 47 47 47 44 39 35 32 28 26 23 21 18 15 13 11 9 7 7 8 9
17 18 20 22 24 25 27 29 31 32 33 33 34 34 35 37 39 40 40 41 42 43 44 45 45 46 46 44 39 34 31 27 23 21 19 17 15 12 10 8 7 7 8
16 18 20 21 23 24 26 27 29 30 31 32 33 33 34 35 37 39 40 40 40 41 42 43 44 44 45 45 43 40 35 31 27 22 20 18 16 14 12 10 8 8 8
15 17 19 20 22 23 24 25 27 28 29 30 31 31 31 33 35 36 39 40 40 40 40 41 42 42 43 43 43 42 40 36 31 26 22 20 18 17 15 13 10 9 9
14 16 18 20 21 22 23 24 25 27 27 28 29 29 30 31 32 34 36 38 40 40 40 40 40 41 41 41 41 41 41 39 37 31 26 23 20 18 17 16 15 13 12
Wind_Direction
352 353 353 353 353 353 353 352 352 352 351 350 351 350 350 350 348 345 342 340 337 334 331 325 320 319 311 297 284 275 267 262 258 257 253 251 250 246 245 244 235 226 221
355 356 358 359 358 357 356 355 355 354 354 353 353 353 352 351 350 347 345 342 339 335 332 327 321 317 312 305 291 276 266 261 255 251 249 247 245 245 242 242 236 222 218
360 2 3 4 4 4 2 360 358 357 356 355 355 354 353 352 352 350 348 345 341 338 333 329 324 319 315 309 297 283 270 259 251 247 244 243 241 241 240 240 233 221 218
5 5 7 8 9 9 8 6 4 2 0 359 358 356 356 354 352 352 350 347 345 342 339 335 330 324 320 311 304 291 272 261 249 244 240 237 236 238 237 235 227 220 216
9 9 10 10 11 11 10 10 8 7 5 3 2 0 359 357 356 354 353 351 348 347 344 340 336 332 327 317 308 293 275 261 251 243 236 231 228 231 231 229 221 216 213
12 13 12 13 13 12 12 11 10 9 8 6 5 3 2 1 359 358 356 353 351 350 348 348 344 341 335 329 320 303 276 264 250 239 231 226 222 223 226 223 214 210 207
15 15 15 14 14 13 13 12 11 10 8 7 6 5 4 2 1 0 358 357 356 354 354 354 351 349 345 340 335 322 293 274 250 230 224 218 216 216 219 215 209 204 203
19 18 16 14 14 14 13 11 10 9 9 8 7 6 5 4 3 3 1 0 359 359 358 357 356 354 353 351 348 341 326 285 238 222 216 214 212 212 213 206 199 196 199
20 19 18 16 14 12 11 10 9 9 8 8 7 7 6 5 5 4 4 4 3 2 2 2 1 0 1 2 3 4 360 350 206 204 204 207 210 210 208 201 195 190 190
21 20 18 17 15 13 11 9 9 9 9 8 8 8 7 7 7 6 6 7 6 5 6 5 6 6 9 12 12 13 21 35 123 163 176 194 200 201 198 193 189 187 185
20 18 17 15 14 12 11 11 10 9 9 10 9 9 9 9 8 8 9 9 8 7 10 9 10 12 14 14 16 19 25 38 87 147 166 176 181 186 188 187 186 186 186
19 17 14 12 11 10 9 9 10 10 10 10 10 10 10 10 10 11 10 11 10 10 11 12 13 16 18 19 23 27 35 46 64 101 151 165 171 175 177 178 179 178 177
18 15 13 13 11 9 9 9 9 10 10 10 10 10 10 11 12 12 12 13 13 13 14 15 17 20 21 25 27 31 39 51 58 68 99 154 166 167 170 172 172 171 173
17 13 12 12 11 10 10 10 10 10 10 10 11 10 11 12 12 13 13 14 15 16 17 19 21 24 26 28 30 33 40 50 55 59 83 127 148 157 161 164 164 165 165
16 14 12 11 10 10 10 10 10 11 11 12 12 11 12 13 13 13 14 16 17 18 21 23 25 27 28 29 31 34 39 48 55 63 83 112 137 148 155 159 160 161 162
15 13 12 10 9 10 10 11 11 12 13 14 14 14 15 15 14 15 16 18 19 21 24 26 27 29 30 31 33 35 41 47 58 67 87 109 123 141 149 154 158 160 162
14 12 10 10 10 10 10 11 10 11 13 14 14 15 16 16 17 17 18 19 21 23 26 28 29 31 32 34 37 41 45 50 61 76 90 105 116 131 143 149 154 158 161
12 11 10 10 10 10 10 11 11 11 11 12 14 15 16 17 18 19 20 21 23 25 27 28 30 32 34 37 40 44 48 54 63 76 86 98 119 125 138 148 154 157 160
10 10 9 9 9 9 9 9 11 11 12 13 14 15 16 17 19 20 21 23 24 25 27 29 30 32 35 38 41 44 48 53 61 71 78 88 107 119 129 140 150 157 161
8 8 8 7 9 9 10 10 10 12 12 13 14 15 16 17 19 20 22 24 25 26 27 29 30 33 35 38 40 43 46 50 56 64 69 78 89 111 124 134 147 157 164
6 7 7 8 9 8 9 10 10 11 12 13 14 15 17 18 19 20 22 24 25 26 28 29 30 32 34 36 38 40 42 45 49 54 59 64 73 90 106 121 141 155 162
4 4 5 6 7 8 9 10 11 11 13 13 14 16 17 19 20 21 22 23 25 26 27 29 30 32 33 34 36 37 38 40 43 46 49 54 61 70 82 104 120 142 155
2 3 4 4 5 6 7 9 10 11 13 14 15 16 18 19 20 21 22 23 24 26 27 29 30 31 32 33 35 35 36 37 39 41 45 49 53 59 67 80 101 126 143
0 2 2 3 4 5 7 8 9 11 12 14 15 17 18 20 21 22 22 23 24 25 26 28 29 30 32 33 34 35 35 36 38 40 43 46 49 53 60 71 83 103 127
357 359 360 1 2 4 6 7 8 10 11 13 15 16 18 20 21 22 23 24 24 24 25 27 28 29 31 32 33 34 36 37 38 41 43 46 49 52 57 65 76 92 107
356 357 359 0 2 3 4 6 7 9 11 12 13 15 17 19 20 21 22 23 25 25 25 26 26 28 29 31 32 34 35 37 39 40 43 46 50 53 58 64 70 82 94